Location: Newark
(46.9000°N, 28.3500°E)
Time: 04:41:17
(UTC+00:00)

Explorer 7 - Pass Details

Date: 01 September 2019
Orbit: 485 x 680 km, 50.3° (Epoch: 22 September)

Event Time Altitude Azimuth Distance (km) Brightness Sun altitude
Rises 06:58:42 0° 277° (W) 3,028 10.1 34.5°
Reaches altitude 10° 07:01:09 10° 282° (WNW) 2,103 9.4 34.9°
Maximum altitude 07:05:57 56° 1° (N) 779 7.9 35.6°
Drops below altitude 10° 07:10:33 10° 80° (E) 2,017 10.5 36.3°
Sets 07:12:51 0° 85° (E) 2,894 11.1 36.6°
